Hourly Data Report for April 10, 2017

OTTAWA INTL A
ONTARIO

45°19'00.000" N
75°40'00.000" W
114.90 m
6106001
71628
YOW

Download Data

Hourly Data (April 2017)
Hourly Data Report for April 10, 2017
TIME
LST
Temp Definition
°C
Dew Point Definition
°C
Rel Hum Definition
%
Precip. Amount Definition
mm

Wind Dir Definition
10's deg

Wind Spd Definition
km/h
Visibility Definition
km
Stn Press Definition
kPa
Hmdx Definition


Wind Chill Definition


Weather Definition


00:00 10.7 -0.7 45   19 8 24.1 100.03     LegendNANA
01:00 10.0 -0.8 47   19 7 24.1 100.01     Mainly Clear
02:00 10.6 -0.5 46   19 12 24.1 99.98     LegendNANA
03:00 10.8 0.3 48   20 17 24.1 99.97     LegendNANA
04:00 11.1 0.6 48   19 17 24.1 99.95     Mostly Cloudy
05:00 11.6 0.4 46   19 21 24.1 99.92     LegendNANA
06:00 11.1 0.6 48   19 17 24.1 99.91     LegendNANA
07:00 12.1 0.9 46   19 18 24.1 99.95     Mostly Cloudy
08:00 15.3 1.9 40   20 21 24.1 99.91     LegendNANA
09:00 18.6 1.7 32   20 29 24.1 99.90     LegendNANA
10:00 20.0 2.5 31   20 21 24.1 99.84     Mostly Cloudy
11:00 22.6 2.9 27   22 27 24.1 99.80     LegendNANA
12:00 23.2 2.8 26   23 26 24.1 99.80     LegendNANA
13:00 23.4 4.1 28   20 27 24.1 99.66     Mostly Cloudy
14:00 24.0 6.0 31   19 30 24.1 99.57     LegendNANA
15:00 23.5 6.5 33   21 27 24.1 99.56     LegendNANA
16:00 22.9 8.4 39   22 36 24.1 99.61     Mostly Cloudy
17:00 17.1 11.9 71   25 38 12.9 99.92     Thunderstorms,Rain Showers
18:00 15.2 12.7 85   21 8 16.1 99.82     Rain Showers
19:00 14.5 12.9 90   19 8 24.1 99.94     Rain
20:00 14.4 11.9 85   22 14 24.1 99.97     LegendNANA
21:00 13.6 11.5 87   25 11 24.1 100.04     LegendNANA
22:00 12.7 11.6 93   25 9 24.1 100.06     Mostly Cloudy
23:00 12.8 11.9 94   26 9 24.1 100.06     LegendNANA

Notes on Data Quality.

Legend

  • E = Estimated
  • M = Missing
  • NA = Not Available*
  • [empty] = Indicates an unobserved value
Date modified: